LA4GY-1 Weather Reports


Display with metric or nautical units.
time (UTC)temp
F
wind
direction
speed
MPH
gust
MPH
rain 1hr
in
rain 24hr
in
rain mn
in
humidity
%
barometer
mb
20260901002319 54 204 0.0 0.0 0.03 0.15 0.10 94 1004.2
20260901001319 54 206 0.0 0.0 0.04 0.15 0.10 94 1004.1
20260901000321 54 207 0.0 0.0 0.05 0.14 0.09 94 1004.2
20260831235319 54 175 0.0 0.0 0.04 0.13 0.09 94 1004.3
20260831234319 54 210 0.0 0.0 0.04 0.13 0.08 94 1004.3
20260831233319 54 209 0.0 0.0 0.04 0.12 0.07 94 1004.3
20260831232319 54 206 0.0 0.0 0.05 0.12 0.07 94 1004.3
20260831231319 54 179 0.0 0.0 0.05 0.11 0.06 94 1004.3
20260831230319 54 173 0.0 0.0 0.04 0.09 0.05 94 1004.3
20260831225319 54 156 0.0 0.0 0.00 0.09 0.05 93 1004.3
20260831224319 54 146 0.0 0.0 0.00 0.09 0.04 93 1004.3
20260831223319 55 172 0.0 0.0 0.00 0.08 0.03 93 1004.3
20260831222319 55 203 0.0 0.0 0.00 0.07 0.02 93 1004.4
20260831221319 55 199 0.0 0.0 0.00 0.06 0.02 93 1004.4
20260831220319 55 203 0.0 0.0 0.00 0.06 0.01 93 1004.4
20260831215318 55 203 0.0 0.0 0.02 0.05 0.05 93 1004.4
20260831214318 55 202 0.0 0.0 0.02 0.05 0.05 92 1004.4
20260831213318 56 202 0.0 0.0 0.02 0.04 0.04 92 1004.4
20260831212318 56 202 0.0 0.0 0.02 0.04 0.04 91 1004.3
20260831211318 56 202 0.0 0.0 0.03 0.04 0.04 91 1004.4
20260831210318 57 202 0.0 0.0 0.03 0.04 0.04 91 1004.4
20260831205318 57 202 0.0 0.0 0.03 0.03 0.03 92 1004.5
20260831204318 56 202 0.0 0.0 0.03 0.03 0.03 91 1004.5
20260831203318 56 202 0.0 0.0 0.02 0.02 0.02 91 1004.4
20260831202318 56 202 0.0 0.0 0.02 0.02 0.02 91 1004.5
20260831201318 56 202 0.0 0.0 0.01 0.01 0.01 92 1004.6
20260831200318 56 202 0.0 0.0 0.01 0.01 0.01 92 1004.6
20260831195318 56 202 0.0 0.0 0.00 0.00 0.00 92 1004.6
20260831194248 56 202 0.0 0.0 0.00 0.00 0.00 91 1004.6
20260831193248 56 202 0.0 0.0 0.00 0.00 0.00 91 1004.6
20260831192248 56 202 0.0 0.0 0.00 0.00 0.00 91 1004.6
20260831191248 57 202 0.0 0.0 0.00 0.00 0.00 90 1004.7
20260831190248 57 202 0.0 0.0 0.00 0.00 0.00 90 1004.7
20260831185248 57 202 0.0 0.0 0.00 0.00 0.00 90 1004.7
20260831184248 57 202 0.0 0.0 0.00 0.00 0.00 89 1004.6
20260831183248 57 202 0.0 0.0 0.00 0.00 0.00 89 1004.6
20260831182248 58 202 0.0 0.0 0.00 0.00 0.00 88 1004.6
20260831181248 58 202 0.0 0.0 0.00 0.00 0.00 87 1004.5
20260831180247 58 202 0.0 0.0 0.00 0.00 0.00 87 1004.5
20260831175247 58 202 0.0 0.0 0.00 0.00 0.00 86 1004.5
20260831174247 59 202 0.0 0.0 0.00 0.00 0.00 86 1004.5
20260831173247 59 202 0.0 0.0 0.00 0.00 0.00 86 1004.5
20260831172247 59 202 0.0 0.0 0.00 0.00 0.00 86 1004.5
20260831171247 60 202 0.0 0.0 0.00 0.00 0.00 86 1004.5
20260831170247 60 202 0.0 0.0 0.00 0.00 0.00 85 1004.4
20260831165247 60 202 0.0 0.0 0.00 0.00 0.00 85 1004.3
20260831164247 60 202 0.0 0.0 0.00 0.00 0.00 84 1004.4
20260831163247 60 202 0.0 0.0 0.00 0.00 0.00 85 1004.5
20260831162247 60 202 0.0 0.0 0.00 0.00 0.00 84 1004.4
20260831161247 60 202 0.0 0.0 0.00 0.00 0.00 85 1004.4
20260831160247 60 202 0.0 0.0 0.00 0.00 0.00 83 1004.4
20260831155247 60 202 0.0 0.0 0.00 0.00 0.00 83 1004.4
20260831154247 60 202 0.0 0.0 0.00 0.00 0.00 84 1004.5
20260831153247 60 202 0.0 0.0 0.00 0.00 0.00 84 1004.3
20260831152247 60 202 0.0 0.0 0.00 0.00 0.00 84 1004.4
20260831151247 61 211 0.0 0.0 0.00 0.00 0.00 85 1004.4
20260831150247 60 211 0.0 0.0 0.00 0.00 0.00 85 1004.4
20260831145247 60 211 0.0 0.0 0.00 0.00 0.00 85 1004.5
20260831144247 60 211 0.0 0.0 0.00 0.00 0.00 84 1004.7
20260831143247 60 211 0.0 0.0 0.00 0.00 0.00 83 1004.6
20260831142246 60 211 0.0 0.0 0.00 0.00 0.00 82 1004.6
20260831141246 60 211 0.0 0.0 0.00 0.00 0.00 80 1004.6
20260831140246 60 211 0.0 0.0 0.00 0.00 0.00 82 1004.6
20260831135246 60 206 0.0 0.0 0.00 0.00 0.00 81 1004.7
20260831134246 60 184 0.0 0.0 0.00 0.00 0.00 82 1004.7
20260831133246 59 184 0.0 0.0 0.00 0.00 0.00 83 1004.8
20260831132216 59 189 0.0 0.0 0.00 0.00 0.00 83 1004.8
20260831131216 59 189 0.0 0.0 0.00 0.00 0.00 84 1004.8
20260831130216 59 189 0.0 0.0 0.00 0.00 0.00 83 1004.8
20260831125216 59 190 0.0 0.0 0.00 0.00 0.00 84 1004.8
20260831124216 59 190 0.0 0.0 0.00 0.00 0.00 84 1004.7
20260831123216 59 190 0.0 0.0 0.00 0.00 0.00 85 1004.8
20260831122216 59 190 0.0 0.0 0.00 0.00 0.00 85 1004.8
20260831121216 59 189 0.0 0.0 0.00 0.00 0.00 84 1004.7
20260831120216 59 189 0.0 0.0 0.00 0.00 0.00 82 1004.8
20260831115216 59 189 0.0 0.0 0.00 0.01 0.00 83 1004.7
20260831114216 59 189 0.0 0.0 0.00 0.01 0.00 84 1004.8
20260831113216 59 190 0.0 0.0 0.00 0.01 0.00 84 1004.8
20260831112216 59 190 0.0 0.0 0.00 0.01 0.00 84 1004.8
20260831111216 59 190 0.0 0.0 0.00 0.01 0.00 83 1004.9
20260831110215 58 190 0.0 0.0 0.00 0.01 0.00 85 1004.9
20260831105215 58 190 0.0 0.0 0.00 0.01 0.00 85 1004.8
20260831104215 58 190 0.0 0.0 0.00 0.01 0.00 85 1004.8
20260831103215 58 190 0.0 0.0 0.00 0.01 0.00 85 1004.9
20260831102215 58 190 0.0 0.0 0.00 0.01 0.00 85 1004.8
20260831101215 58 190 0.0 0.0 0.00 0.01 0.00 86 1004.8
20260831100215 58 190 0.0 0.0 0.00 0.01 0.00 86 1004.9
20260831095215 58 190 0.0 0.0 0.00 0.01 0.00 86 1005.0
20260831094216 58 190 0.0 0.0 0.00 0.02 0.00 88 1005.0
20260831093215 57 190 0.0 0.0 0.00 0.02 0.00 87 1005.1
20260831092215 57 190 0.0 0.0 0.00 0.03 0.00 88 1005.0
20260831091215 57 190 0.0 0.0 0.00 0.03 0.00 89 1005.0
20260831090215 57 190 0.0 0.0 0.00 0.04 0.00 90 1004.9
20260831085215 57 190 0.0 0.0 0.00 0.09 0.00 90 1004.9
20260831084215 57 190 0.0 0.0 0.00 0.09 0.00 90 1004.9
20260831083215 57 193 0.0 0.0 0.00 0.10 0.00 89 1005.0
20260831082215 57 215 0.0 0.0 0.00 0.10 0.00 89 1005.0
20260831081215 57 215 0.0 0.0 0.00 0.11 0.00 89 1005.0
20260831080215 57 215 0.0 0.0 0.00 0.11 0.00 88 1005.1
20260831075215 57 215 0.0 0.0 0.00 0.11 0.00 89 1005.0
20260831074215 57 215 0.0 0.0 0.00 0.11 0.00 90 1005.0
20260831073215 57 215 0.0 0.0 0.00 0.11 0.00 89 1004.9
20260831072214 57 215 0.0 0.0 0.00 0.11 0.00 90 1004.9
20260831071214 57 215 0.0 0.0 0.00 0.11 0.00 90 1004.9
20260831070214 57 215 0.0 0.0 0.00 0.11 0.00 90 1004.9
20260831065214 57 215 0.0 0.0 0.00 0.11 0.00 90 1004.9
20260831064214 57 215 0.0 0.0 0.00 0.11 0.00 91 1004.8
20260831063214 57 269 0.0 0.0 0.00 0.11 0.00 90 1004.8
20260831062214 56 284 0.0 0.0 0.00 0.11 0.00 90 1004.7
20260831061214 56 285 0.0 0.0 0.00 0.11 0.00 91 1004.7
20260831060214 56 285 0.0 0.0 0.00 0.11 0.00 91 1004.7
20260831055214 55 285 0.0 0.0 0.00 0.11 0.00 92 1004.8
20260831054214 55 286 0.0 0.0 0.00 0.11 0.00 92 1004.8
20260831053214 55 285 0.0 0.0 0.00 0.11 0.00 92 1004.8
20260831052214 55 285 0.0 0.0 0.00 0.11 0.00 92 1004.7
20260831051214 55 285 0.0 0.0 0.00 0.11 0.00 92 1004.7
20260831050214 55 286 0.0 0.0 0.00 0.11 0.00 92 1004.6
20260831045214 54 286 0.0 0.0 0.00 0.11 0.00 91 1004.6
20260831044214 54 218 0.0 0.0 0.00 0.11 0.00 91 1004.6
20260831043144 55 218 0.0 0.0 0.00 0.11 0.00 91 1004.6
20260831042144 55 218 0.0 0.0 0.00 0.11 0.00 91 1004.6
20260831041144 55 218 0.0 0.0 0.00 0.11 0.00 91 1004.5
20260831040144 55 215 0.0 0.0 0.00 0.11 0.00 91 1004.5
20260831035143 55 215 0.0 0.0 0.00 0.11 0.00 91 1004.5
20260831034143 55 215 0.0 0.0 0.00 0.11 0.00 91 1004.4
20260831033143 55 215 0.0 0.0 0.00 0.11 0.00 91 1004.5
20260831032143 55 215 0.0 0.0 0.00 0.11 0.00 91 1004.5
20260831031143 55 215 0.0 0.0 0.00 0.11 0.00 91 1004.5
20260831030143 55 215 0.0 0.0 0.00 0.11 0.00 91 1004.5
20260831025143 55 215 0.0 0.0 0.00 0.11 0.00 91 1004.6
20260831024143 55 215 0.0 0.0 0.00 0.11 0.00 91 1004.5
20260831023143 55 213 0.0 0.0 0.00 0.11 0.00 91 1004.5
20260831022143 55 213 0.0 0.0 0.00 0.11 0.00 91 1004.4
20260831021143 55 213 0.0 0.0 0.00 0.11 0.00 90 1004.3
20260831020143 55 213 0.0 0.0 0.00 0.11 0.00 91 1004.3
20260831015143 55 213 0.0 0.0 0.00 0.11 0.00 91 1004.3
20260831014143 55 213 0.0 0.0 0.00 0.11 0.00 90 1004.4
20260831013143 55 213 0.0 0.0 0.00 0.11 0.00 90 1004.1
20260831012143 55 213 0.0 0.0 0.00 0.11 0.00 90 1004.1
20260831011143 55 213 0.0 0.0 0.00 0.11 0.00 91 1004.2
20260831010143 55 213 0.0 0.0 0.00 0.11 0.00 91 1004.2
20260831005143 55 214 0.0 0.0 0.00 0.11 0.00 91 1004.1
20260831004143 55 211 0.0 0.0 0.00 0.12 0.00 91 1004.1
20260831003143 55 210 0.0 0.0 0.00 0.12 0.00 91 1004.1